sat.trackr.live / text

‹ back to catalog

QIANFAN-167

NORAD 69384 · 2026-124C

PAYLOAD ACTIVE UNKNOWN

§ Identity

Operator
Country
PRC
Launch date
2026-06-04
Launch site
TAISC
Launch vehicle
Mass (kg)
RCS (m²)

External: N2YO · Heavens-Above · Gunter

§ Orbital elements

Epoch: 2026-09-20T03:57:47.613888Z

Period
106.59 min
Inclination
89.0062°
Eccentricity
0.0002220
Mean motion
13.51031820 rev/d
Perigee alt
1,066.8 km
Apogee alt
1,070.1 km
Semi-major
7,446.6 km
B*
1.5730e-4
RAAN
352.0731°
Arg perigee
106.9405°
Mean anomaly
253.1990°
Rev number
1,485

§ Raw data

QIANFAN-1671 69384U 26124C   26263.16513442  .00000114  00000+0  15730-3 0  99942 69384  89.0062 352.0731 0002220 106.9405 253.1990 13.51031820 14850

JSON: /api/v1/satellites/69384 · /tle

For live sub-satellite position, see the globe view (requires WebGL).

§ Visibility from observer

Set your observer location to see the next 7 days of passes ≥ 10°. The values pass through the URL so the page stays shareable.

No JS? Fill the form by hand. The geolocation button needs JavaScript.